White Plains, CT

12:59 PM EDT on April 27, 2017 (GMT -0400)
Westchester County

Weather History for KHPN - August, 2014

Change the Weather History Date:

Sunday, August 10, 2014

  Actual Average Record
Temperature  
Mean Temperature 74 °F -  
Max Temperature 87 °F 80 °F 93 °F (2001)
Min Temperature 62 °F 63 °F 55 °F (1989)
Cooling Degree Days 9    
Growing Degree Days 24 (Base 50)    
Moisture  
Dew Point 57 °F    
Average Humidity 60    
Maximum Humidity 84    
Minimum Humidity 31    
Precipitation  
Precipitation 0.00 in - - ()
Sea Level Pressure  
Sea Level Pressure 30.11 in    
Wind  
Wind Speed 4 mph (NW)    
Max Wind Speed 7 mph    
Max Gust Speed -    
Visibility 10 miles    
Events      
Averages and records for this station are not official NWS values.
T = Trace of Precipitation, MM = Missing Value Source: NWS Daily Summary

Daily Weather History Graph

Daily Weather History Graph

Search for Another Location

Airport or City:

Trip Planner

Search our weather history database for the weather conditions in past years. The results will help you decide how hot, cold, wet, or windy it might be!

Date:

Astronomy

Aug. 10, 2014 Rise Set
Actual Time 5:59 AM EDT 8:00 PM EDT
Civil Twilight 5:29 AM EDT 8:30 PM EDT
Nautical Twilight 4:52 AM EDT 9:06 PM EDT
Astronomical Twilight 4:12 AM EDT 9:46 PM EDT
Moon 7:44 PM EDT (8/10) 5:48 AM EDT (8/10)
Length of Visible Light 15h 00m
Length of Day
14h 00m
Full, 100% of the Moon is Illuminated
Aug 10
Full
Aug 10
Full
Aug 17
Last Quarter
Aug 25
New
Sep 2
First Quarter

Hourly Weather History & Observations

Time (EDT) Temp. Heat Index Dew Point Humidity Pressure Visibility Wind Dir Wind Speed Gust Speed Precip Events Conditions
12:56 AM 64.9 °F - 57.0 °F 75% 30.11 in 10.0 mi NW 4.6 mph - N/A   Clear
1:56 AM 64.0 °F - 59.0 °F 84% 30.09 in 10.0 mi NW 4.6 mph - N/A   Clear
2:56 AM 62.1 °F - 57.0 °F 84% 30.10 in 10.0 mi NW 4.6 mph - N/A   Clear
3:56 AM 64.0 °F - 57.9 °F 80% 30.10 in 10.0 mi WNW 4.6 mph - N/A   Clear
4:56 AM 64.0 °F - 55.9 °F 75% 30.10 in 10.0 mi NW 6.9 mph - N/A   Clear
5:56 AM 64.0 °F - 55.9 °F 75% 30.11 in 10.0 mi WNW 5.8 mph - N/A   Partly Cloudy
6:56 AM 64.9 °F - 57.0 °F 75% 30.12 in 10.0 mi WNW 5.8 mph - N/A   Clear
7:56 AM 70.0 °F - 59.0 °F 68% 30.13 in 10.0 mi NNW 5.8 mph - N/A   Clear
8:56 AM 73.9 °F - 60.1 °F 62% 30.14 in 10.0 mi North 3.5 mph - N/A   Clear
9:56 AM 78.1 °F - 59.0 °F 52% 30.14 in 10.0 mi North 3.5 mph - N/A   Clear
10:56 AM 81.0 °F 81.1 °F 57.9 °F 45% 30.13 in 10.0 mi Calm Calm - N/A   Partly Cloudy
11:56 AM 82.0 °F 81.7 °F 57.0 °F 42% 30.13 in 10.0 mi Variable 4.6 mph - N/A   Partly Cloudy
12:56 PM 84.0 °F 82.9 °F 55.0 °F 37% 30.12 in 10.0 mi Variable 3.5 mph - N/A   Partly Cloudy
1:56 PM 84.0 °F 82.5 °F 53.1 °F 34% 30.11 in 10.0 mi WNW 5.8 mph - N/A   Scattered Clouds
2:56 PM 86.0 °F - 52.0 °F 31% 30.10 in 10.0 mi WNW 4.6 mph - N/A   Scattered Clouds
3:56 PM 81.0 °F 80.7 °F 55.0 °F 41% 30.09 in 10.0 mi SSE 5.8 mph - N/A   Scattered Clouds
4:56 PM 82.0 °F 81.6 °F 55.9 °F 41% 30.09 in 10.0 mi Calm Calm - N/A   Scattered Clouds
5:56 PM 82.0 °F 81.6 °F 55.9 °F 41% 30.08 in 10.0 mi Calm Calm - N/A   Scattered Clouds
6:56 PM 81.0 °F 80.8 °F 55.9 °F 42% 30.08 in 10.0 mi Calm Calm - N/A   Scattered Clouds
7:56 PM 73.9 °F - 57.9 °F 57% 30.08 in 10.0 mi Calm Calm - N/A   Partly Cloudy
8:56 PM 71.1 °F - 57.9 °F 63% 30.09 in 10.0 mi Calm Calm - N/A   Clear
9:56 PM 70.0 °F - 59.0 °F 68% 30.10 in 10.0 mi Calm Calm - N/A   Clear
10:56 PM 68.0 °F - 60.1 °F 76% 30.11 in 10.0 mi Calm Calm - N/A   Scattered Clouds
11:56 PM 66.9 °F - 62.1 °F 84% 30.11 in 10.0 mi WNW 3.5 mph - N/A   Partly Cloudy